Station Historical Data
Daily Summary for August 18, 2012 Units:  Metric    English   Both
« Previous Day
Next Day »
Daily Weekly Monthly Yearly Custom
  High: Low: Average:
Temperature: 26 °C 19.9 °C 22.5 °C
Dew Point: 20.3 °C 17.2 °C 19.1 °C
Humidity: 93% 60% 82%
Wind Speed: 11.3km/h 0km/h 2.6km/h
Wind Gust: 16.1km/h - -
Wind- - SSW
Pressure: 1013.1 hPa 1009.4 hPa -
Precipitation: 0.76 mm    
Historical Graphs
 
 
Tabular Data for August 18, 2012
Time Temperature Dew Point Pressure Wind Wind Speed Wind Gust Humidity Rainfall Rate (Hourly) Conditions
00:00 21.3 °C 20.2 °C 1013.1 hPa WNW 1.6 km/h 1.6 km/h 93% 0 mm
00:06 21.4 °C 20.2 °C 1013.1 hPa Calm   1.6 km/h 93% 0 mm
00:11 21.3 °C 20.2 °C 1013.1 hPa West 1.6 km/h 1.6 km/h 93% 0 mm
00:16 21.3 °C 20.2 °C 1013.1 hPa Calm   1.6 km/h 93% 0 mm
00:21 21.3 °C 20.2 °C 1013.1 hPa West 1.6 km/h 1.6 km/h 93% 0 mm
00:26 21.3 °C 20.2 °C 1013.1 hPa Calm   1.6 km/h 93% 0 mm
00:31 21.3 °C 20.2 °C 1013.1 hPa West 1.6 km/h 1.6 km/h 93% 0 mm
00:36 21.3 °C 20.2 °C 1013.1 hPa Calm   1.6 km/h 93% 0 mm
00:41 21.3 °C 20.1 °C 1013.1 hPa West 1.6 km/h 1.6 km/h 93% 0 mm
00:46 21.3 °C 20.2 °C 1013.1 hPa Calm     93% 0 mm
00:51 21.3 °C 20.1 °C 1013.1 hPa Calm     93% 0 mm
00:56 21.3 °C 20.1 °C 1013.1 hPa Calm     93% 0 mm
01:01 21.3 °C 20.1 °C 1012.8 hPa Calm     93% 0 mm
01:06 21.3 °C 20.1 °C 1012.8 hPa Calm     93% 0 mm
01:11 21.2 °C 20.1 °C 1012.8 hPa Calm     93% 0 mm
01:16 21.2 °C 20.1 °C 1012.8 hPa Calm     93% 0 mm
01:21 21.2 °C 20.1 °C 1012.8 hPa Calm     93% 0 mm
01:26 21.2 °C 20.1 °C 1012.8 hPa Calm     93% 0 mm
01:31 21.2 °C 20 °C 1012.8 hPa Calm     93% 0 mm
01:36 21.2 °C 19.8 °C 1012.8 hPa NNW 1.6 km/h 3.2 km/h 92% 0 mm
01:41 21.2 °C 20 °C 1012.4 hPa NNW 3.2 km/h 4.8 km/h 93% 0 mm
01:46 21.1 °C 19.9 °C 1012.4 hPa North 3.2 km/h 4.8 km/h 93% 0 mm
01:51 21.1 °C 19.9 °C 1012.4 hPa North 3.2 km/h 3.2 km/h 93% 0 mm
01:56 21 °C 19.8 °C 1012.4 hPa NNW 3.2 km/h 4.8 km/h 93% 0 mm
02:01 21 °C 19.8 °C 1012.4 hPa NNW 1.6 km/h 4.8 km/h 93% 0 mm
02:06 20.9 °C 19.8 °C 1012.4 hPa NNW 3.2 km/h 4.8 km/h 93% 0 mm
02:11 20.9 °C 19.7 °C 1012.4 hPa North 3.2 km/h 4.8 km/h 93% 0 mm
02:16 20.9 °C 19.7 °C 1012.1 hPa NNW 3.2 km/h 3.2 km/h 93% 0 mm
02:21 20.9 °C 19.7 °C 1012.1 hPa NNW 3.2 km/h 3.2 km/h 93% 0 mm
02:26 20.9 °C 19.7 °C 1012.1 hPa NNW 4.8 km/h 4.8 km/h 93% 0 mm
02:31 20.9 °C 19.8 °C 1012.4 hPa NNW 4.8 km/h 4.8 km/h 93% 0 mm
02:36 20.9 °C 19.8 °C 1012.1 hPa NW 3.2 km/h 4.8 km/h 93% 0 mm
02:41 20.9 °C 19.8 °C 1012.1 hPa North 4.8 km/h 6.4 km/h 93% 0 mm
02:46 20.9 °C 19.8 °C 1012.4 hPa NNW 3.2 km/h 4.8 km/h 93% 0 mm
02:51 21 °C 19.8 °C 1012.1 hPa NNE 3.2 km/h 6.4 km/h 93% 0 mm
02:56 21 °C 19.8 °C 1012.4 hPa North 3.2 km/h 3.2 km/h 93% 0 mm
03:01 21.1 °C 19.9 °C 1012.1 hPa Calm   3.2 km/h 93% 0 mm
03:06 21.1 °C 19.9 °C 1012.1 hPa NE 1.6 km/h 3.2 km/h 93% 0 mm
03:11 21.1 °C 19.9 °C 1012.1 hPa NNE 1.6 km/h 4.8 km/h 93% 0 mm
03:16 21.1 °C 19.9 °C 1012.1 hPa ENE 1.6 km/h 4.8 km/h 93% 0 mm
03:21 21.1 °C 19.9 °C 1012.1 hPa North 3.2 km/h 4.8 km/h 93% 0 mm
03:26 21.1 °C 19.9 °C 1012.1 hPa Calm   3.2 km/h 93% 0 mm
03:31 21.1 °C 19.9 °C 1012.4 hPa NNW 1.6 km/h 3.2 km/h 93% 0 mm
03:36 21.1 °C 19.9 °C 1012.4 hPa North 1.6 km/h 3.2 km/h 93% 0 mm
03:41 21 °C 19.7 °C 1012.1 hPa NNE 1.6 km/h 3.2 km/h 92% 0 mm
03:46 21 °C 19.7 °C 1012.1 hPa NW 3.2 km/h 3.2 km/h 92% 0 mm
03:51 21.1 °C 19.9 °C 1012.1 hPa NNE 1.6 km/h 3.2 km/h 93% 0 mm
03:56 21 °C 19.7 °C 1012.1 hPa North 3.2 km/h 4.8 km/h 92% 0 mm
04:01 21 °C 19.8 °C 1012.1 hPa North 1.6 km/h 3.2 km/h 93% 0 mm
04:07 21 °C 19.7 °C 1012.1 hPa North 3.2 km/h 4.8 km/h 92% 0 mm
04:12 21 °C 19.7 °C 1012.1 hPa NNW 4.8 km/h 4.8 km/h 92% 0 mm
04:17 21 °C 19.7 °C 1012.1 hPa NNW 3.2 km/h 6.4 km/h 92% 0 mm
04:22 20.9 °C 19.8 °C 1012.1 hPa North 3.2 km/h 6.4 km/h 93% 0 mm
04:27 20.9 °C 19.6 °C 1012.1 hPa North 3.2 km/h 8 km/h 92% 0 mm
04:32 20.9 °C 19.8 °C 1011.7 hPa North 4.8 km/h 4.8 km/h 93% 0 mm
04:37 20.9 °C 19.7 °C 1011.7 hPa NNE 3.2 km/h 9.7 km/h 93% 0 mm
04:42 20.8 °C 19.7 °C 1011.7 hPa NNW 1.6 km/h 6.4 km/h 93% 0 mm
04:47 20.8 °C 19.6 °C 1011.7 hPa NNW 4.8 km/h 8 km/h 93% 0 mm
04:52 20.8 °C 19.6 °C 1011.7 hPa Calm   6.4 km/h 93% 0 mm
04:57 20.7 °C 19.6 °C 1011.7 hPa NE 3.2 km/h 6.4 km/h 93% 0 mm
05:02 20.7 °C 19.6 °C 1011.7 hPa NNE 1.6 km/h 8 km/h 93% 0 mm
05:07 20.7 °C 19.6 °C 1012.1 hPa NNE 1.6 km/h 3.2 km/h 93% 0 mm
05:12 20.7 °C 19.6 °C 1011.7 hPa NNW 1.6 km/h 4.8 km/h 93% 0 mm
05:17 20.7 °C 19.5 °C 1012.1 hPa NNW 3.2 km/h 4.8 km/h 93% 0 mm
05:22 20.7 °C 19.5 °C 1012.1 hPa NNW 3.2 km/h 6.4 km/h 93% 0 mm
05:27 20.6 °C 19.4 °C 1012.1 hPa North 3.2 km/h 4.8 km/h 93% 0 mm
05:32 20.6 °C 19.4 °C 1012.1 hPa North 1.6 km/h 3.2 km/h 93% 0 mm
05:37 20.6 °C 19.4 °C 1012.4 hPa NNE 1.6 km/h 3.2 km/h 93% 0 mm
05:42 20.6 °C 19.4 °C 1012.4 hPa NNW 3.2 km/h 4.8 km/h 93% 0 mm
05:47 20.6 °C 19.4 °C 1012.4 hPa North 4.8 km/h 4.8 km/h 93% 0 mm
05:52 20.5 °C 19.3 °C 1012.4 hPa North 3.2 km/h 6.4 km/h 93% 0 mm
05:57 20.5 °C 19.3 °C 1012.4 hPa NNW 1.6 km/h 4.8 km/h 93% 0 mm
06:02 20.4 °C 19.3 °C 1012.4 hPa North 1.6 km/h 3.2 km/h 93% 0 mm
06:07 20.4 °C 19.3 °C 1012.4 hPa NNW 3.2 km/h 3.2 km/h 93% 0 mm
06:12 20.4 °C 19.3 °C 1012.4 hPa NNE 1.6 km/h 3.2 km/h 93% 0 mm
06:17 20.4 °C 19.2 °C 1012.4 hPa North 1.6 km/h 3.2 km/h 93% 0 mm
06:22 20.4 °C 19.2 °C 1012.4 hPa Calm   3.2 km/h 93% 0 mm
06:27 20.4 °C 19.2 °C 1012.4 hPa Calm   3.2 km/h 93% 0 mm
06:32 20.4 °C 19.2 °C 1012.4 hPa Calm     93% 0 mm
06:37 20.4 °C 19.2 °C 1012.4 hPa North 1.6 km/h 3.2 km/h 93% 0 mm
06:42 20.4 °C 19.2 °C 1012.4 hPa North 1.6 km/h 3.2 km/h 93% 0 mm
06:47 20.4 °C 19.2 °C 1012.4 hPa North 4.8 km/h 4.8 km/h 93% 0 mm
06:52 20.3 °C 19.2 °C 1012.4 hPa North 1.6 km/h 6.4 km/h 93% 0 mm
06:57 20.3 °C 19.2 °C 1012.4 hPa NE 1.6 km/h 4.8 km/h 93% 0 mm
07:02 20.3 °C 19.1 °C 1012.4 hPa NNW 1.6 km/h 4.8 km/h 93% 0 mm
07:07 20.3 °C 19.1 °C 1012.4 hPa Calm   3.2 km/h 93% 0 mm
07:12 20.3 °C 19.1 °C 1012.4 hPa NNW 3.2 km/h 4.8 km/h 93% 0 mm
07:17 20.2 °C 19.1 °C 1012.8 hPa Calm   6.4 km/h 93% 0 mm
07:22 20.2 °C 19.1 °C 1012.8 hPa NNE 1.6 km/h 3.2 km/h 93% 0 mm
07:27 20.2 °C 19.1 °C 1012.8 hPa North 3.2 km/h 3.2 km/h 93% 0 mm
07:32 20.2 °C 19.1 °C 1012.8 hPa NE 1.6 km/h 4.8 km/h 93% 0 mm
07:37 20.2 °C 19.1 °C 1012.8 hPa NNE 1.6 km/h 3.2 km/h 93% 0 mm
07:42 20.2 °C 19 °C 1012.4 hPa NE 3.2 km/h 4.8 km/h 93% 0 mm
07:47 20.2 °C 19 °C 1012.4 hPa NE 1.6 km/h 3.2 km/h 93% 0 mm
07:52 20.1 °C 18.9 °C 1012.4 hPa NE 1.6 km/h 3.2 km/h 93% 0 mm
07:57 20.1 °C 18.9 °C 1012.4 hPa NE 1.6 km/h 4.8 km/h 93% 0 mm
08:02 19.9 °C 18.8 °C 1012.4 hPa North 1.6 km/h 3.2 km/h 93% 0 mm
08:07 19.9 °C 18.8 °C 1012.4 hPa NNE 1.6 km/h 4.8 km/h 93% 0 mm
08:12 19.9 °C 18.8 °C 1012.4 hPa NNE 1.6 km/h 1.6 km/h 93% 0 mm
08:17 20.1 °C 18.9 °C 1012.4 hPa North 1.6 km/h 3.2 km/h 93% 0 mm
08:22 20.2 °C 19.1 °C 1012.4 hPa NNW 1.6 km/h 4.8 km/h 93% 0 mm
08:27 20.4 °C 19.2 °C 1012.4 hPa NNE 3.2 km/h 4.8 km/h 93% 0 mm
08:32 20.4 °C 19.3 °C 1012.4 hPa ENE 3.2 km/h 4.8 km/h 93% 0 mm
08:37 20.4 °C 19.1 °C 1012.4 hPa NNE 3.2 km/h 4.8 km/h 92% 0 mm
08:42 20.4 °C 19.1 °C 1012.8 hPa NE 4.8 km/h 8 km/h 92% 0 mm
08:47 20.5 °C 19.2 °C 1012.8 hPa North 8 km/h 8 km/h 92% 0 mm
08:52 20.7 °C 19.3 °C 1013.1 hPa NNW 3.2 km/h 6.4 km/h 92% 0 mm
08:57 20.8 °C 19.4 °C 1013.1 hPa NE 3.2 km/h 8 km/h 92% 0 mm
09:02 20.9 °C 19.6 °C 1013.1 hPa North 4.8 km/h 9.7 km/h 92% 0 mm
09:07 21.1 °C 19.8 °C 1013.1 hPa NE 3.2 km/h 8 km/h 92% 0 mm
09:13 21.2 °C 19.4 °C 1013.1 hPa NE 4.8 km/h 6.4 km/h 90% 0 mm
09:18 21.2 °C 19.3 °C 1013.1 hPa NNE 4.8 km/h 9.7 km/h 89% 0 mm
09:23 21.3 °C 19.2 °C 1013.1 hPa North 3.2 km/h 8 km/h 88% 0 mm
09:28 21.6 °C 19.5 °C 1013.1 hPa North 4.8 km/h 6.4 km/h 88% 0 mm
09:33 21.7 °C 19.2 °C 1012.8 hPa ENE 4.8 km/h 9.7 km/h 86% 0 mm
09:38 21.8 °C 18.8 °C 1013.1 hPa NNE 8 km/h 12.9 km/h 83% 0 mm
09:43 21.9 °C 19.1 °C 1013.1 hPa NNW 3.2 km/h 12.9 km/h 84% 0 mm
09:48 22.1 °C 19.2 °C 1013.1 hPa NE 3.2 km/h 8 km/h 84% 0 mm
09:53 22.1 °C 18.9 °C 1013.1 hPa NNE 3.2 km/h 11.3 km/h 82% 0 mm
09:58 22.2 °C 18.8 °C 1013.1 hPa NE 8 km/h 9.7 km/h 81% 0 mm
10:03 22.2 °C 19 °C 1013.1 hPa NE 6.4 km/h 8 km/h 82% 0 mm
10:08 22.3 °C 18.9 °C 1013.1 hPa ESE 1.6 km/h 8 km/h 81% 0 mm
10:13 22.4 °C 18.2 °C 1013.1 hPa East 9.7 km/h 11.3 km/h 77% 0 mm
10:18 22.5 °C 18.5 °C 1013.1 hPa NE 4.8 km/h 11.3 km/h 78% 0 mm
10:23 22.5 °C 18.3 °C 1013.1 hPa North 3.2 km/h 11.3 km/h 77% 0 mm
10:28 22.7 °C 18.5 °C 1013.1 hPa NNW 4.8 km/h 8 km/h 77% 0 mm
10:33 22.8 °C 17.7 °C 1013.1 hPa North 6.4 km/h 16.1 km/h 73% 0 mm
10:38 22.7 °C 17.8 °C 1012.8 hPa NE 9.7 km/h 12.9 km/h 74% 0 mm
10:43 22.8 °C 18.3 °C 1012.8 hPa ENE 8 km/h 11.3 km/h 76% 0 mm
10:48 23 °C 18.8 °C 1013.1 hPa NE 9.7 km/h 9.7 km/h 77% 0 mm
10:53 23.1 °C 17.9 °C 1013.1 hPa NE 6.4 km/h 9.7 km/h 73% 0 mm
10:58 23.1 °C 18.2 °C 1013.1 hPa NNE 4.8 km/h 9.7 km/h 74% 0 mm
11:03 23.3 °C 18.2 °C 1013.1 hPa ENE 4.8 km/h 6.4 km/h 73% 0 mm
11:08 23.4 °C 17.6 °C 1013.1 hPa NE 3.2 km/h 8 km/h 70% 0 mm
11:13 23.6 °C 18.3 °C 1013.1 hPa NE 8 km/h 11.3 km/h 72% 0 mm
11:18 23.7 °C 18.1 °C 1013.1 hPa NNW 4.8 km/h 9.7 km/h 71% 0 mm
11:23 23.7 °C 18.4 °C 1013.1 hPa North 1.6 km/h 6.4 km/h 72% 0 mm
11:28 23.8 °C 18.3 °C 1013.1 hPa NNE 6.4 km/h 9.7 km/h 71% 0 mm
11:33 23.9 °C 17.9 °C 1013.1 hPa NNE 4.8 km/h 9.7 km/h 69% 0 mm
11:38 24 °C 17.7 °C 1013.1 hPa NE 6.4 km/h 12.9 km/h 68% 0 mm
11:43 23.9 °C 17.7 °C 1013.1 hPa East 6.4 km/h 8 km/h 68% 0 mm
11:48 24 °C 18.4 °C 1013.1 hPa NNW 1.6 km/h 8 km/h 71% 0 mm
11:53 24.1 °C 17.6 °C 1013.1 hPa NE 3.2 km/h 8 km/h 67% 0 mm
11:58 24.2 °C 18.1 °C 1012.8 hPa NNW 4.8 km/h 6.4 km/h 69% 0 mm
12:03 24.4 °C 18.1 °C 1012.8 hPa NNE 3.2 km/h 9.7 km/h 68% 0 mm
12:08 24.7 °C 18.6 °C 1012.8 hPa ESE 6.4 km/h 6.4 km/h 69% 0 mm
12:13 24.7 °C 18.4 °C 1012.8 hPa NNE 3.2 km/h 4.8 km/h 68% 0 mm
12:18 24.7 °C 18.7 °C 1012.8 hPa East 8 km/h 8 km/h 69% 0 mm
12:23 24.7 °C 18.1 °C 1012.8 hPa NE 3.2 km/h 9.7 km/h 67% 0 mm
12:28 24.6 °C 18.1 °C 1012.8 hPa SE 6.4 km/h 8 km/h 67% 8.89 mm
12:33 24.6 °C 18 °C 1012.8 hPa ESE 4.8 km/h 8 km/h 67% 2.29 mm
12:38 24.8 °C 18.2 °C 1012.8 hPa South 3.2 km/h 4.8 km/h 67% 1.27 mm
12:43 25.2 °C 18.9 °C 1012.8 hPa Calm   3.2 km/h 68% 1.02 mm
12:48 25.2 °C 17.9 °C 1012.8 hPa NW 4.8 km/h 8 km/h 64% 0 mm
12:54 25.1 °C 18.3 °C 1012.8 hPa NW 3.2 km/h 3.2 km/h 66% 0 mm
12:59 24.9 °C 18.3 °C 1012.8 hPa WNW 1.6 km/h 6.4 km/h 67% 0 mm
13:04 24.9 °C 18.6 °C 1012.4 hPa SW 3.2 km/h 4.8 km/h 68% 0 mm
13:08 25.1 °C 18.3 °C 1012.4 hPa Calm   6.4 km/h 66% 0 mm
13:14 25.1 °C 19 °C 1012.4 hPa West 6.4 km/h 8 km/h 69% 0 mm
13:19 24.7 °C 18.2 °C 1012.4 hPa WNW 3.2 km/h 4.8 km/h 67% 0 mm
13:24 24.9 °C 19.1 °C 1012.4 hPa NW 3.2 km/h 3.2 km/h 70% 0 mm
13:29 25.3 °C 19.9 °C 1012.1 hPa WSW 3.2 km/h 3.2 km/h 72% 0 mm
13:34 25.5 °C 18.9 °C 1012.1 hPa Calm   4.8 km/h 67% 0 mm
13:39 25.4 °C 18.6 °C 1012.1 hPa NE 3.2 km/h 4.8 km/h 66% 0 mm
13:44 25.4 °C 19.1 °C 1012.1 hPa NE 6.4 km/h 8 km/h 68% 0 mm
13:49 25.2 °C 18.2 °C 1012.1 hPa East 4.8 km/h 8 km/h 65% 0 mm
13:54 25.1 °C 18.8 °C 1011.7 hPa Calm   4.8 km/h 68% 0 mm
13:59 25.4 °C 18.6 °C 1011.7 hPa NNW 4.8 km/h 4.8 km/h 66% 0 mm
14:04 25.2 °C 18.7 °C 1011.7 hPa NW 3.2 km/h 8 km/h 67% 0 mm
14:09 25.2 °C 19.1 °C 1011.4 hPa North 4.8 km/h 4.8 km/h 69% 0 mm
14:14 25.3 °C 19 °C 1011.4 hPa West 4.8 km/h 4.8 km/h 68% 0 mm
14:19 25.3 °C 19.2 °C 1011.4 hPa NNW 6.4 km/h 6.4 km/h 69% 0 mm
14:24 25.2 °C 18.4 °C 1011.4 hPa ENE 3.2 km/h 4.8 km/h 66% 0 mm
14:29 25.3 °C 18.5 °C 1011.4 hPa NNW 6.4 km/h 6.4 km/h 66% 0 mm
14:34 25.2 °C 17.9 °C 1011.4 hPa NW 3.2 km/h 8 km/h 64% 0 mm
14:39 25.2 °C 17.9 °C 1011.1 hPa NW 6.4 km/h 9.7 km/h 64% 0 mm
14:44 25.3 °C 18.3 °C 1011.4 hPa North 1.6 km/h 6.4 km/h 65% 0 mm
14:49 25.3 °C 18.3 °C 1011.4 hPa NNW 6.4 km/h 9.7 km/h 65% 0 mm
14:54 25.4 °C 18.2 °C 1011.1 hPa NNW 4.8 km/h 6.4 km/h 64% 0 mm
14:59 25.4 °C 17.6 °C 1011.1 hPa North 1.6 km/h 9.7 km/h 62% 0 mm
15:04 25.5 °C 17.9 °C 1011.1 hPa NW 4.8 km/h 8 km/h 63% 0 mm
15:09 25.5 °C 18.4 °C 1011.1 hPa NE 4.8 km/h 8 km/h 65% 0 mm
15:14 25.6 °C 17.7 °C 1011.1 hPa NNE 1.6 km/h 6.4 km/h 62% 0 mm
15:19 25.6 °C 18 °C 1010.7 hPa NNW 11.3 km/h 11.3 km/h 63% 0 mm
15:24 25.4 °C 18.4 °C 1010.7 hPa NNW 6.4 km/h 9.7 km/h 65% 0 mm
15:29 25.4 °C 18.1 °C 1010.7 hPa WNW 4.8 km/h 8 km/h 64% 0 mm
15:34 25.3 °C 18 °C 1010.7 hPa WNW 3.2 km/h 6.4 km/h 64% 0 mm
15:39 25.2 °C 18.4 °C 1010.7 hPa NW 6.4 km/h 9.7 km/h 66% 0 mm
15:44 25.1 °C 18.1 °C 1010.7 hPa Calm   4.8 km/h 65% 0 mm
15:49 25.3 °C 18.2 °C 1011.1 hPa West 1.6 km/h 1.6 km/h 65% 0 mm
15:54 25.2 °C 18.4 °C 1010.7 hPa WNW 3.2 km/h 4.8 km/h 66% 0 mm
15:59 25.2 °C 18.4 °C 1010.7 hPa NW 3.2 km/h 4.8 km/h 66% 0 mm
16:04 25.1 °C 17.8 °C 1010.7 hPa NNW 3.2 km/h 6.4 km/h 64% 0 mm
16:09 25.2 °C 18.4 °C 1010.7 hPa WNW 3.2 km/h 4.8 km/h 66% 0 mm
16:14 25.1 °C 18.6 °C 1010.7 hPa WNW 3.2 km/h 4.8 km/h 67% 0 mm
16:19 25.1 °C 18.5 °C 1010.7 hPa WNW 4.8 km/h 6.4 km/h 67% 0 mm
16:24 25 °C 17.7 °C 1010.7 hPa WSW 3.2 km/h 6.4 km/h 64% 0 mm
16:29 25 °C 17.5 °C 1010.4 hPa WNW 1.6 km/h 6.4 km/h 63% 0 mm
16:34 25.1 °C 18.1 °C 1010.4 hPa NNW 1.6 km/h 3.2 km/h 65% 0 mm
16:39 25.3 °C 17.7 °C 1010.4 hPa WNW 4.8 km/h 4.8 km/h 63% 0 mm
16:44 25.3 °C 18.3 °C 1010.4 hPa WNW 4.8 km/h 4.8 km/h 65% 0 mm
16:49 25.2 °C 17.7 °C 1010.4 hPa WNW 3.2 km/h 6.4 km/h 63% 0 mm
16:54 25.3 °C 17.7 °C 1010.4 hPa SSW 1.6 km/h 6.4 km/h 63% 0 mm
16:59 25.4 °C 18.6 °C 1010.4 hPa Calm   3.2 km/h 66% 0 mm
17:04 25.4 °C 18.6 °C 1010 hPa NW 8 km/h 8 km/h 66% 0 mm
17:09 25.2 °C 18.4 °C 1010 hPa NW 4.8 km/h 8 km/h 66% 0 mm
17:14 25.2 °C 17.6 °C 1010.4 hPa NW 1.6 km/h 6.4 km/h 63% 0 mm
17:19 25.5 °C 18.2 °C 1010.4 hPa West 1.6 km/h 1.6 km/h 64% 0 mm
17:24 25.8 °C 18.4 °C 1010 hPa NW 1.6 km/h 4.8 km/h 64% 0 mm
17:29 25.6 °C 18.8 °C 1010 hPa North 4.8 km/h 4.8 km/h 66% 0 mm
17:34 25.8 °C 18.5 °C 1010 hPa NNW 4.8 km/h 4.8 km/h 64% 0 mm
17:39 26 °C 18.2 °C 1010 hPa NE 3.2 km/h 8 km/h 62% 0 mm
17:45 25.9 °C 18.1 °C 1010.4 hPa NE 3.2 km/h 9.7 km/h 62% 0 mm
17:50 25.7 °C 18.2 °C 1010 hPa NW 3.2 km/h 9.7 km/h 63% 0 mm
17:55 25.5 °C 17.2 °C 1010 hPa NE 3.2 km/h 8 km/h 60% 0 mm
18:00 25.4 °C 17.6 °C 1009.7 hPa North 6.4 km/h 8 km/h 62% 0 mm
18:05 25.2 °C 17.7 °C 1010 hPa WNW 4.8 km/h 4.8 km/h 63% 0 mm
18:10 25.1 °C 18.7 °C 1010 hPa NNW 3.2 km/h 4.8 km/h 68% 0 mm
18:15 24.9 °C 18.1 °C 1010 hPa NNW 1.6 km/h 4.8 km/h 66% 0 mm
18:20 24.8 °C 17.8 °C 1009.7 hPa NNW 1.6 km/h 3.2 km/h 65% 0 mm
18:25 24.8 °C 18.5 °C 1009.7 hPa Calm   1.6 km/h 68% 0 mm
18:30 24.7 °C 18.4 °C 1009.7 hPa Calm   3.2 km/h 68% 0 mm
18:35 24.7 °C 18.4 °C 1009.7 hPa Calm   1.6 km/h 68% 0 mm
18:40 24.6 °C 18.6 °C 1009.7 hPa West 1.6 km/h 1.6 km/h 69% 0 mm
18:45 24.6 °C 18.6 °C 1009.4 hPa Calm     69% 0 mm
18:50 24.6 °C 18.3 °C 1009.7 hPa Calm   1.6 km/h 68% 0 mm
18:55 24.5 °C 18.2 °C 1009.7 hPa Calm     68% 0 mm
19:00 24.5 °C 18.4 °C 1009.7 hPa West 1.6 km/h 1.6 km/h 69% 0 mm
19:05 24.4 °C 18.6 °C 1010 hPa WSW 3.2 km/h 3.2 km/h 70% 0 mm
19:10 24.3 °C 18.5 °C 1009.7 hPa Calm   1.6 km/h 70% 0 mm
19:15 24.3 °C 19.4 °C 1009.7 hPa SE 1.6 km/h 1.6 km/h 74% 0 mm
19:20 24.1 °C 18.5 °C 1009.7 hPa Calm     71% 0 mm
19:25 24.1 °C 18.7 °C 1009.7 hPa SE 1.6 km/h 1.6 km/h 72% 0 mm
19:30 23.9 °C 19 °C 1009.7 hPa Calm     74% 0 mm
19:35 23.9 °C 19.4 °C 1009.7 hPa Calm     76% 0 mm
19:40 23.8 °C 19.8 °C 1010 hPa Calm     78% 0 mm
19:45 23.7 °C 20 °C 1010 hPa Calm     80% 0 mm
19:50 23.6 °C 19.9 °C 1010 hPa Calm     80% 0 mm
19:55 23.4 °C 19.8 °C 1010.4 hPa Calm     80% 0 mm
20:00 23.4 °C 19.9 °C 1010 hPa Calm     81% 0 mm
20:05 23.4 °C 20.2 °C 1010 hPa Calm     82% 0 mm
20:10 23.3 °C 20.1 °C 1010 hPa Calm     82% 0 mm
20:15 23.3 °C 20.1 °C 1010 hPa Calm     82% 0 mm
20:20 23.1 °C 20.3 °C 1010 hPa SSE 1.6 km/h 1.6 km/h 84% 0 mm
20:25 22.8 °C 20 °C 1010 hPa Calm   1.6 km/h 84% 0 mm
20:30 22.6 °C 19.9 °C 1010 hPa Calm     85% 0 mm
20:35 22.4 °C 19.9 °C 1010.4 hPa Calm     86% 0 mm
20:40 22.3 °C 20.2 °C 1010.4 hPa Calm   1.6 km/h 88% 0 mm
20:45 22.1 °C 20.1 °C 1010.4 hPa SSW 1.6 km/h 1.6 km/h 88% 0 mm
20:50 22 °C 19.9 °C 1010.4 hPa Calm     88% 0 mm
20:55 21.9 °C 20 °C 1010.4 hPa Calm     89% 0 mm
21:00 21.8 °C 20.1 °C 1010.4 hPa Calm   1.6 km/h 90% 0 mm
21:05 21.6 °C 19.9 °C 1010.4 hPa Calm   1.6 km/h 90% 0 mm
21:10 21.5 °C 19.9 °C 1010.4 hPa Calm     91% 0 mm
21:15 21.4 °C 19.9 °C 1010.4 hPa Calm     91% 0 mm
21:20 21.3 °C 19.8 °C 1010.4 hPa Calm     91% 0 mm
21:25 21.3 °C 19.8 °C 1010.4 hPa Calm   1.6 km/h 91% 0 mm
21:30 21.2 °C 19.7 °C 1010.4 hPa SSW 1.6 km/h 1.6 km/h 91% 0 mm
21:35 21.3 °C 19.8 °C 1010.4 hPa Calm   1.6 km/h 91% 0 mm
21:40 21.3 °C 19.8 °C 1010.4 hPa Calm     91% 0 mm
21:45 21.3 °C 19.8 °C 1010.4 hPa Calm     91% 0 mm
21:50 21.2 °C 19.7 °C 1010.4 hPa Calm     91% 0 mm
21:55 21.2 °C 19.4 °C 1010.4 hPa Calm     90% 0 mm
22:00 21.2 °C 19.7 °C 1010.7 hPa Calm   1.6 km/h 91% 0 mm
22:05 21.2 °C 19.7 °C 1010.7 hPa Calm     91% 0 mm
22:11 21.1 °C 19.6 °C 1010.7 hPa SSW 1.6 km/h 1.6 km/h 91% 0 mm
22:15 21.1 °C 19.6 °C 1010.7 hPa North 3.2 km/h 3.2 km/h 91% 0 mm
22:21 21.1 °C 19.7 °C 1010.7 hPa North 1.6 km/h 1.6 km/h 92% 0 mm
22:26 20.9 °C 19.6 °C 1010.7 hPa Calm   1.6 km/h 92% 0 mm
22:31 20.9 °C 19.6 °C 1010.7 hPa NNW 1.6 km/h 3.2 km/h 92% 0 mm
22:36 20.7 °C 19.4 °C 1010.7 hPa NNW 1.6 km/h 3.2 km/h 92% 0 mm
22:41 20.7 °C 19.4 °C 1010.7 hPa NNW 1.6 km/h 1.6 km/h 92% 0 mm
22:46 20.7 °C 19.5 °C 1010.7 hPa Calm   1.6 km/h 93% 0 mm
22:51 20.7 °C 19.3 °C 1010.7 hPa Calm     92% 0 mm
22:56 20.7 °C 19.3 °C 1010.7 hPa Calm     92% 0 mm
23:01 20.6 °C 19.3 °C 1010.7 hPa Calm     92% 0 mm
23:06 20.6 °C 19.3 °C 1010.7 hPa Calm     92% 0 mm
23:11 20.6 °C 19.3 °C 1010.7 hPa Calm     92% 0 mm
23:16 20.6 °C 19.3 °C 1010.4 hPa Calm     92% 0 mm
23:21 20.6 °C 19.2 °C 1010.4 hPa Calm     92% 0 mm
23:26 20.6 °C 19.3 °C 1010.4 hPa Calm     92% 0 mm
23:31 20.7 °C 19.3 °C 1010.4 hPa NNW 1.6 km/h 1.6 km/h 92% 0 mm
23:36 20.7 °C 19.2 °C 1010.4 hPa NNW 1.6 km/h 1.6 km/h 91% 0 mm
23:41 20.6 °C 19.3 °C 1010.4 hPa NNW 1.6 km/h 1.6 km/h 92% 0 mm
23:46 20.4 °C 19.1 °C 1010.4 hPa NNW 1.6 km/h 1.6 km/h 92% 0 mm
23:51 20.3 °C 19 °C 1010.4 hPa Calm   3.2 km/h 92% 0 mm
23:56 20.3 °C 19 °C 1010 hPa Calm   1.6 km/h 92% 0 mm
Compliments of Weather Underground